{"data":{"norad_id":68692,"epoch":"2026-05-11T20:34:12.137952Z","epoch_age_seconds":1207707,"freshness":"AGED","line1":"1 68692U 26080B   26131.85708493  .00001994  00000+0  12811-3 0  9992","line2":"2 68692  97.6597 207.4737 0015746 180.0003 180.1228 15.09523009  4180","mean_motion":15.09523009,"eccentricity":0.0015746,"inclination_deg":97.6597,"raan_deg":207.4737,"arg_perigee_deg":180.0003,"mean_anomaly_deg":180.1228,"bstar":0.00012811,"rev_number":418,"period_min":95.394372355672,"perigee_km":526.76688247535,"apogee_km":548.54609933691,"semimajor_km":6915.7934909061,"source":"CELESTRAK","updated_at":"2026-05-25T13:38:08.022627Z"}}